This demonstration page uses our WeatherBlox Daily Observations layout. Learn more.

Left ArrowRight Arrow

Hourly Observations for September 23, 2016

Temp ( °F °C ) Dew Point ( °F °C ) Humidity (%) Winds ( mph kmh ) Pressure ( in mb ) Visibility ( mi km ) Precip ( " mm )
12:51 am 00:51 Clear 70 21.1 57 13.9 64 64 E 5 7 29.73 1007 10 16.0934 0 0
1:51 am 01:51 Clear 70 21.1 57 13.9 64 64 E 3 6 29.73 1007 10 16.0934 0 0
2:51 am 02:51 Clear 68 20 55 12.8 63 63 ESE 6 9 29.72 1007 10 16.0934 0 0
3:51 am 03:51 Clear 68 20 54 12.2 61 61 ENE 7 11 29.72 1007 10 16.0934 0 0
4:51 am 04:51 Clear 69 20.6 54 12.2 59 59 ENE 6 9 29.73 1007 10 16.0934 0 0
5:51 am 05:51 Clear 69 20.6 54 12.2 59 59 E 8 13 29.74 1007 10 16.0934 0 0
6:51 am 06:51 Sunny 66 18.9 55 12.8 68 68 ESE 8 13 29.78 1008 10 16.0934 0 0
7:51 am 07:51 Sunny 72 22.2 57 13.9 59 59 E 8 13 29.79 1009 10 16.0934 0 0
8:51 am 08:51 Sunny 77 25 57 13.9 50 50 E 9 15 29.78 1009 10 16.0934 0 0
9:51 am 09:51 Sunny 80 26.7 52 11.1 38 38 SSE 6 9 29.77 1008 10 16.0934 0 0
10:51 am 10:51 Mostly Sunny 82 27.8 50 10 33 33 S 8 13 29.78 1008 10 16.0934 0 0
11:25 am 11:25 Partly Cloudy 81 27.2 57 13.9 44 44 NW 18 30 29.74 1007 10 16.0934 0 0
11:51 am 11:51 Partly Cloudy 80 26.7 57 13.9 45 45 NW 22 35 29.78 1009 10 16.0934 0 0
12:51 pm 12:51 Mostly Cloudy 81 27.2 57 13.9 44 44 WNW 18 30 29.78 1008 10 16.0934 0 0
1:51 pm 13:51 Cloudy 78 25.6 56 13.3 47 47 NW 21 33 29.77 1008 10 16.0934 0 0
2:51 pm 14:51 Cloudy with Light Rain 67 19.4 57 13.9 71 71 NW 23 37 29.84 1011 10 16.0934 0 0.0254
3:51 pm 15:51 Cloudy 67 19.4 55 12.8 66 66 NW 20 31 29.85 1011 10 16.0934 0 0.0254
4:51 pm 16:51 Partly Cloudy 71 21.7 49 9.4 46 46 NW 13 20 29.85 1011 10 16.0934 0 0
5:51 pm 17:51 Sunny 71 21.7 47 8.3 42 42 WNW 16 26 29.84 1010 10 16.0934 0 0
6:51 pm 18:51 Cloudy with Light Rain 71 21.7 47 8.3 42 42 WNW 8 13 29.86 1011 10 16.0934 0 0.0254
7:51 pm 19:51 Clear 67 19.4 47 8.3 49 49 N 9 15 29.87 1012 10 16.0934 0 0.0254
8:51 pm 20:51 Partly Cloudy 66 18.9 47 8.3 50 50 NNW 3 6 29.88 1012 10 16.0934 0 0
9:51 pm 21:51 Clear 61 16.1 48 8.9 63 63 SE 6 9 29.88 1012 10 16.0934 0 0
10:51 pm 22:51 Clear 60 15.6 48 8.9 65 65 NNW 5 7 29.9 1012 10 16.0934 0 0
11:51 pm 23:51 Clear 60 15.6 48 8.9 65 65 WNW 3 6 29.91 1013 10 16.0934 0 0

Powered by AerisWeather